Location: Recife
(8.0585°S, 34.8848°W)
Time: 21:10:37
(UTC-03:00)

Explorer 11/Cluster Stage 4 - Pass Details

Date: 14 April 2026
Orbit: 463 x 1174 km, 28.8° (Epoch: 16 May)

Event Time Altitude Azimuth Distance (km) Brightness Sun altitude
Rises 05:31:05 0° 231° (SW) 2,848 8.9 1.4°
Reaches altitude 10° 05:33:18 10° 224° (SW) 2,038 8.2 2.0°
Maximum altitude 05:37:54 46° 150° (SSE) 986 7.4 3.1°
Drops below altitude 10° 05:43:33 10° 78° (ENE) 2,497 12.1 4.5°
Sets 05:46:30 0° 72° (ENE) 3,563 12.5 5.2°
